• In Hungary
  • List of Countries
  • For 7 days
  • Water Temperature
  • Satellite Maps
  • Weather Map
  • News
  • Weather Widgets
  • user-avatar
    Login

    Hourly Weather Skowarcz

    Today, 13 November, Tuesday

    Time Temperature Precipitation Wind Pressure Humidity
    00:00 +9°C° 0 mm 6 mps 762 mmHg 87%
    01:00 +9°C° 0 mm 5 mps 762 mmHg 89%
    02:00 +9°C° 0 mm 5 mps 762 mmHg 90%
    03:00 +9°C° 0 mm 5 mps 762 mmHg 90%
    04:00 +8°C° 0 mm 5 mps 762 mmHg 91%
    05:00 +8°C° 0 mm 5 mps 762 mmHg 91%
    06:00 +8°C° 0 mm 5 mps 762 mmHg 92%
    07:00 +8°C° 0 mm 4 mps 762 mmHg 92%
    08:00 +8°C° 0 mm 4 mps 762 mmHg 90%
    09:00 +10°C° 0 mm 4 mps 762 mmHg 87%
    10:00 +10°C° 0 mm 4 mps 763 mmHg 85%
    11:00 +10°C° 0.9 mm 4 mps 763 mmHg 86%
    12:00 +10°C° 0.9 mm 4 mps 762 mmHg 87%
    13:00 +10°C° 0.9 mm 3 mps 762 mmHg 88%
    14:00 +10°C° 1.7 mm 4 mps 762 mmHg 90%
    15:00 +10°C° 1.7 mm 4 mps 763 mmHg 91%
    16:00 +10°C° 1.7 mm 4 mps 763 mmHg 92%
    17:00 +10°C° 0.4 mm 4 mps 763 mmHg 92%
    18:00 +8°C° 0.4 mm 4 mps 763 mmHg 91%
    19:00 +8°C° 0.4 mm 4 mps 763 mmHg 91%
    20:00 +8°C° 0 mm 4 mps 763 mmHg 91%
    21:00 +8°C° 0 mm 4 mps 764 mmHg 91%
    22:00 +7°C° 0 mm 4 mps 764 mmHg 92%
    23:00 +7°C° 0.1 mm 5 mps 764 mmHg 90%

    Tomorrow, 14 November, Wednesday

    Time Temperature Precipitation Wind Pressure Humidity
    00:00 +8°C° 0.1 mm 5 mps 764 mmHg 88%
    01:00 +8°C° 0.1 mm 5 mps 764 mmHg 86%
    02:00 +8°C° 0.1 mm 5 mps 764 mmHg 86%
    03:00 +8°C° 0.1 mm 6 mps 764 mmHg 85%
    04:00 +8°C° 0.1 mm 6 mps 764 mmHg 84%
    05:00 +8°C° 0.2 mm 6 mps 764 mmHg 84%
    06:00 +8°C° 0.2 mm 5 mps 765 mmHg 85%
    07:00 +8°C° 0.2 mm 5 mps 765 mmHg 86%
    08:00 +9°C° 0.1 mm 5 mps 765 mmHg 84%
    09:00 +9°C° 0.1 mm 5 mps 766 mmHg 83%
    10:00 +9°C° 0.1 mm 6 mps 766 mmHg 81%
    11:00 +9°C° 0.1 mm 5 mps 766 mmHg 80%
    12:00 +10°C° 0.1 mm 5 mps 767 mmHg 79%
    13:00 +10°C° 0.1 mm 5 mps 767 mmHg 77%
    14:00 +10°C° 0.1 mm 4 mps 767 mmHg 80%
    15:00 +10°C° 0.1 mm 4 mps 768 mmHg 82%
    16:00 +10°C° 0.1 mm 4 mps 768 mmHg 85%
    17:00 +9°C° 0 mm 3 mps 769 mmHg 87%
    18:00 +8°C° 0 mm 3 mps 769 mmHg 90%
    19:00 +8°C° 0 mm 3 mps 769 mmHg 92%
    20:00 +8°C° 0 mm 2 mps 769 mmHg 93%
    21:00 +7°C° 0 mm 2 mps 770 mmHg 94%
    22:00 +7°C° 0 mm 2 mps 770 mmHg 95%
    23:00 +7°C° 0 mm 2 mps 770 mmHg 95%

    Day after tomorrow, 15 November, Thursday

    Time Temperature Precipitation Wind Pressure Humidity
    00:00 +7°C° 0 mm 2 mps 770 mmHg 95%
    01:00 +6°C° 0 mm 2 mps 771 mmHg 95%
    02:00 +6°C° 0 mm 2 mps 771 mmHg 95%
    03:00 +6°C° 0 mm 2 mps 771 mmHg 95%
    04:00 +6°C° 0 mm 2 mps 771 mmHg 95%
    05:00 +7°C° 0 mm 1 mps 771 mmHg 96%
    06:00 +7°C° 0 mm 1 mps 772 mmHg 96%
    07:00 +7°C° 0 mm 1 mps 772 mmHg 96%
    08:00 +8°C° 0 mm 1 mps 772 mmHg 93%
    09:00 +8°C° 0 mm 1 mps 772 mmHg 90%
    10:00 +9°C° 0 mm 1 mps 773 mmHg 88%
    11:00 +9°C° 0 mm 1 mps 773 mmHg 84%
    12:00 +9°C° 0 mm 2 mps 773 mmHg 81%
    13:00 +9°C° 0 mm 2 mps 773 mmHg 77%
    14:00 +9°C° 0 mm 2 mps 773 mmHg 80%
    15:00 +9°C° 0 mm 1 mps 773 mmHg 83%
    16:00 +9°C° 0 mm 1 mps 773 mmHg 85%
    17:00 +7°C° 0 mm 2 mps 773 mmHg 86%
    18:00 +7°C° 0 mm 2 mps 774 mmHg 87%
    19:00 +7°C° 0 mm 2 mps 774 mmHg 89%
    20:00 +6°C° 0 mm 2 mps 774 mmHg 89%
    21:00 +6°C° 0 mm 2 mps 774 mmHg 90%
    22:00 +6°C° 0 mm 2 mps 775 mmHg 90%
    23:00 +6°C° 0 mm 2 mps 775 mmHg 90%

    16 November, Friday

    Time Temperature Precipitation Wind Pressure Humidity
    00:00 +5°C° 0 mm 2 mps 775 mmHg 91%
    01:00 +5°C° 0 mm 2 mps 775 mmHg 91%
    02:00 +5°C° 0 mm 2 mps 775 mmHg 91%
    03:00 +5°C° 0 mm 2 mps 775 mmHg 91%
    04:00 +5°C° 0 mm 2 mps 775 mmHg 91%
    05:00 +4°C° 0 mm 2 mps 776 mmHg 91%
    06:00 +4°C° 0 mm 2 mps 776 mmHg 91%
    07:00 +4°C° 0 mm 2 mps 776 mmHg 92%
    08:00 +5°C° 0 mm 2 mps 776 mmHg 88%
    09:00 +6°C° 0 mm 2 mps 777 mmHg 85%
    10:00 +7°C° 0 mm 2 mps 777 mmHg 81%
    11:00 +7°C° 0 mm 2 mps 777 mmHg 78%
    12:00 +8°C° 0 mm 2 mps 777 mmHg 74%
    13:00 +9°C° 0 mm 2 mps 777 mmHg 70%
    14:00 +8°C° 0 mm 2 mps 777 mmHg 74%
    15:00 +7°C° 0 mm 2 mps 777 mmHg 77%
    16:00 +7°C° 0 mm 1 mps 777 mmHg 81%
    17:00 +6°C° 0 mm 2 mps 777 mmHg 82%
    18:00 +5°C° 0 mm 2 mps 777 mmHg 83%
    19:00 +5°C° 0 mm 2 mps 777 mmHg 84%
    20:00 +5°C° 0 mm 2 mps 778 mmHg 85%
    21:00 +4°C° 0 mm 2 mps 778 mmHg 86%
    22:00 +4°C° 0 mm 2 mps 778 mmHg 86%
    23:00 +4°C° 0 mm 2 mps 778 mmHg 87%

    17 November, Saturday

    Time Temperature Precipitation Wind Pressure Humidity
    00:00 +3°C° 0 mm 2 mps 778 mmHg 88%
    01:00 +3°C° 0 mm 2 mps 778 mmHg 88%
    02:00 +3°C° 0 mm 2 mps 778 mmHg 88%
    03:00 +4°C° 0 mm 1 mps 778 mmHg 89%
    04:00 +4°C° 0 mm 1 mps 778 mmHg 89%
    05:00 +4°C° 0 mm 1 mps 778 mmHg 89%
    06:00 +4°C° 0 mm 1 mps 778 mmHg 89%
    07:00 +4°C° 0 mm 1 mps 778 mmHg 89%
    08:00 +4°C° 0 mm 1 mps 778 mmHg 85%
    09:00 +5°C° 0 mm 1 mps 778 mmHg 81%
    10:00 +6°C° 0 mm 1 mps 778 mmHg 76%
    11:00 +7°C° 0 mm 1 mps 778 mmHg 73%
    12:00 +8°C° 0 mm 1 mps 778 mmHg 70%
    13:00 +8°C° 0 mm 1 mps 778 mmHg 67%
    14:00 +8°C° 0 mm 1 mps 777 mmHg 71%
    15:00 +7°C° 0 mm 1 mps 777 mmHg 74%
    16:00 +6°C° 0 mm 1 mps 777 mmHg 77%
    17:00 +6°C° 0 mm 1 mps 777 mmHg 79%
    18:00 +6°C° 0 mm 1 mps 776 mmHg 80%
    19:00 +4°C° 0 mm 2 mps 776 mmHg 81%
    20:00 +4°C° 0 mm 2 mps 776 mmHg 82%
    21:00 +4°C° 0 mm 2 mps 776 mmHg 83%
    22:00 +4°C° 0 mm 2 mps 775 mmHg 83%
    23:00 +4°C° 0 mm 2 mps 775 mmHg 85%

    18 November, Sunday

    Time Temperature Precipitation Wind Pressure Humidity
    00:00 +3°C° 0 mm 3 mps 775 mmHg 87%
    01:00 +3°C° 0 mm 3 mps 775 mmHg 88%
    02:00 +3°C° 0 mm 3 mps 774 mmHg 90%
    03:00 +3°C° 0 mm 3 mps 774 mmHg 91%
    04:00 +3°C° 0 mm 3 mps 773 mmHg 93%
    05:00 +3°C° 0 mm 3 mps 773 mmHg 94%
    06:00 +3°C° 0 mm 3 mps 772 mmHg 94%
    07:00 +3°C° 0 mm 3 mps 772 mmHg 95%
    08:00 +4°C° 0 mm 3 mps 772 mmHg 94%
    09:00 +5°C° 0 mm 4 mps 771 mmHg 92%
    10:00 +6°C° 0 mm 4 mps 771 mmHg 91%
    11:00 +7°C° 0 mm 5 mps 771 mmHg 87%
    12:00 +7°C° 0 mm 5 mps 771 mmHg 83%
    13:00 +8°C° 0 mm 6 mps 770 mmHg 79%
    14:00 +7°C° 0 mm 6 mps 770 mmHg 79%
    15:00 +5°C° 0 mm 7 mps 770 mmHg 78%
    16:00 +5°C° 0 mm 7 mps 770 mmHg 77%
    17:00 +4°C° 0 mm 7 mps 770 mmHg 76%
    18:00 +4°C° 0 mm 7 mps 770 mmHg 75%
    19:00 +4°C° 0 mm 6 mps 770 mmHg 74%
    20:00 +4°C° 0 mm 6 mps 770 mmHg 75%
    21:00 +4°C° 0 mm 6 mps 770 mmHg 76%
    22:00 +4°C° 0 mm 6 mps 770 mmHg 77%
    23:00 +3°C° 0.1 mm 6 mps 769 mmHg 77%
    Show more